Location: Unspecified
(0.0000°N, 0.0000°E)
Time: 09:37:59
(UTC+00:00)

Vanguard 3 - Pass Details

Date: 17 December 2017
Orbit: 508 x 3264 km, 33.4° (Epoch: 15 January)

Event Time Altitude Azimuth Distance (km) Brightness Sun altitude
Rises 20:50:15 0° 277° (W) 4,021 11.3 -39.2°
Reaches altitude 10° 20:52:51 10° 267° (W) 3,366 10.8 -39.7°
Maximum altitude 21:00:54 36° 204° (SSW) 2,743 10.0 -41.4°
Drops below altitude 10° 21:14:01 10° 144° (SE) 5,455 11.3 -44.2°
Sets 21:19:44 0° 136° (SE) 6,828 11.8 -45.4°
